GW4477 Weather Reports


time (UTC)temp
C
wind
direction
speed
KPH
gust
KPH
rain 1hr
cm
rain 24hr
cm
rain mn
cm
humidity
%
barometer
mb
20260503023008 14 194 1.6 4.8 0.00 0.00 0.00 39 1018.3
20260503021511 15 205 1.6 3.2 0.00 0.00 0.00 1018.1
20260503020017 16 196 0.0 3.2 0.00 0.00 0.00 35 1018.3
20260503014522 17 186 0.0 3.2 0.00 0.00 0.00 33 1018.0
20260503013031 18 186 0.0 3.2 0.00 0.00 0.00 30 1018.0
20260503011509 20 186 0.0 3.2 0.00 0.00 0.00 28 1018.0
20260503010012 21 174 1.6 8.0 0.00 0.00 0.00 27 1018.0
20260503004518 21 165 3.2 8.0 0.00 0.00 0.00 26 1018.0
20260503003020 21 179 3.2 8.0 0.00 0.00 0.00 26 1018.0
20260503001524 22 188 3.2 11.3 0.00 0.00 0.00 24 1018.3
20260503000017 22 186 1.6 4.8 0.00 0.00 0.00 26 1018.3
20260502234516 22 169 6.4 12.9 0.00 0.00 0.00 25 1018.5
20260502233021 22 166 6.4 12.9 0.00 0.00 0.00 25 1018.6
20260502231523 22 186 3.2 9.7 0.00 0.00 0.00 26 1018.7
20260502230026 22 210 6.4 16.1 0.00 0.00 0.00 26 1018.8
20260502224528 22 187 8.0 12.9 0.00 0.00 0.00 25 1018.9
20260502223020 22 234 4.8 11.3 0.00 0.00 0.00 25 1019.1
20260502221505 23 169 3.2 9.7 0.00 0.00 0.00 24 1019.2
20260502220010 23 346 3.2 14.5 0.00 0.00 0.00 24 1019.3
20260502214504 23 305 4.8 14.5 0.00 0.00 0.00 22 1019.6
20260502213003 23 232 1.6 8.0 0.00 0.00 0.00 26 1019.9
20260502211513 22 209 3.2 12.9 0.00 0.00 0.00 29 1020.1
20260502210008 21 189 6.4 11.3 0.00 0.00 0.00 31 1020.4
20260502204515 21 241 6.4 14.5 0.00 0.00 0.00 29 1020.6
20260502203006 22 237 4.8 12.9 0.00 0.00 0.00 31 1020.8
20260502201511 21 209 3.2 17.7 0.00 0.00 0.00 33 1020.9
20260502200006 21 250 3.2 12.9 0.00 0.00 0.00 30 1021.2
20260502194511 20 232 4.8 9.7 0.00 0.00 0.00 34 1021.4
20260502193029 20 200 3.2 11.3 0.00 0.00 0.00 36 1021.7
20260502191504 20 345 3.2 8.0 0.00 0.00 0.00 36 1021.9
20260502190013 19 211 3.2 14.5 0.00 0.00 0.00 38 1022.1
20260502184511 18 143 1.6 16.1 0.00 0.00 0.00 40 1022.2
20260502183016 18 142 6.4 12.9 0.00 0.00 0.00 40 1022.3
20260502181517 18 178 8.0 19.3 0.00 0.00 0.00 42 1022.5
20260502163012 15 175 9.7 19.3 0.00 0.00 0.00 50 1023.2
20260502161514 15 116 8.0 16.1 0.00 0.00 0.00 51 1023.4
20260502151514 12 114 9.7 14.5 0.00 0.00 0.00 59 1023.3
20260502123012 4 85 1.6 4.8 0.00 0.00 0.00 88 1022.2
20260502121508 3 47 0.0 3.2 0.00 0.00 0.00 88 1022.1
20260502114528 3 34 1.6 3.2 0.00 0.00 0.00 87 1022.0
20260502113005 2 80 0.0 3.2 0.00 0.00 0.00 87 1021.6
20260502111506 2 26 1.6 3.2 0.00 0.00 0.00 86 1021.7
20260502110014 2 26 0.0 3.2 0.00 0.00 0.00 86 1021.3
20260502104521 3 26 0.0 0.0 0.00 0.00 0.00 86 1021.2
20260502103021 3 26 0.0 3.2 0.00 0.00 0.00 86 1021.3
20260502101505 3 26 1.6 3.2 0.00 0.00 0.00 86 1021.3
20260502091523 3 133 0.0 3.2 0.00 0.00 0.00 84 1020.5
20260502071519 5 334 0.0 3.2 0.00 0.00 0.00 78 1020.6
20260502070026 5 325 0.0 3.2 0.00 0.00 0.00 77 1020.5
20260502064541 6 325 0.0 3.2 0.00 0.00 0.00 75 1020.7
20260502063019 6 306 0.0 3.2 0.00 0.00 0.00 74 1020.5
20260502061503 6 297 0.0 3.2 0.00 0.00 0.00 71 1020.6
20260502060043 7 252 0.0 3.2 0.00 0.00 0.00 69 1020.6
20260502054507 8 258 0.0 3.2 0.00 0.00 0.00 70 1020.4
20260502053004 8 254 0.0 3.2 0.00 0.00 0.00 67 1020.4
20260502051505 8 247 0.0 3.2 0.00 0.00 0.00 66 1020.2
20260502050004 9 252 0.0 3.2 0.00 0.00 0.00 64 1020.2
20260502044506 10 262 0.0 4.8 0.00 0.00 0.00 62 1020.3
20260502043004 10 267 0.0 3.2 0.00 0.00 0.00 60 1020.4
20260502041508 11 342 0.0 6.4 0.00 0.00 0.00 59 1020.5
20260502040004 10 275 3.2 11.3 0.00 0.00 0.00 62 1020.4
20260502034504 10 236 0.0 3.2 0.00 0.00 0.00 63 1019.7
20260502033006 10 225 0.0 4.8 0.00 0.00 0.00 61 1019.4
20260502031504 11 229 1.6 3.2 0.00 0.00 0.00 58 1019.4
20260502030008 11 244 1.6 3.2 0.00 0.00 0.00 56 1019.3
20260502024513 12 225 0.0 4.8 0.00 0.00 0.00 55 1019.2